MST,Max TemperatureF,Mean TemperatureF,Min TemperatureF,Max Dew PointF,MeanDew PointF,Min DewpointF,Max Humidity, Mean Humidity, Min Humidity, Max Sea Level PressureIn, Mean Sea Level PressureIn, Min Sea Level PressureIn, Max VisibilityMiles, Mean VisibilityMiles, Min VisibilityMiles, Max Wind SpeedMPH, Mean Wind SpeedMPH, Max Gust SpeedMPH,PrecipitationIn, CloudCover, Events, WindDirDegrees
2013-1-1,30,21,10,15,12,5,77,62,51,30.45,30.31,30.15,10,10,10,28,16,33,0.00,5,,263
2013-1-2,25,15,5,6,4,-1,77,59,45,30.56,30.50,30.43,10,10,10,24,15,28,0.00,0,,287
2013-1-3,36,27,18,9,4,1,52,38,28,30.42,30.31,30.15,10,10,10,30,24,41,0.00,0,,270
2013-1-4,42,32,21,11,6,3,50,34,21,30.26,30.19,30.04,10,10,10,37,22,44,0.00,0,,265
2013-1-5,36,30,24,12,10,8,53,43,33,30.35,30.25,30.13,10,10,10,29,17,43,0.00,0,,240
2013-1-6,44,31,18,23,15,7,65,46,31,30.11,29.99,29.89,10,10,10,31,21,46,0.00,5,,255
2013-1-7,37,34,30,23,17,12,75,53,39,29.96,29.84,29.71,10,8,2,40,23,54,0.00,5,Snow,230
2013-1-8,42,39,36,22,16,11,50,39,28,29.99,29.91,29.70,10,10,10,46,29,60,0.00,6,,244
2013-1-9,48,44,41,24,22,19,47,41,35,30.01,29.83,29.60,10,10,10,47,36,63,0.00,0,,220
2013-1-10,44,28,10,30,16,4,86,72,38,29.77,29.58,29.48,10,5,0,23,12,32,0.08,6,Fog-Snow,321
2013-1-11,10,4,-2,2,-1,-7,85,75,64,30.30,29.93,29.67,10,3,1,24,16,29,0.01,8,Snow,322
2013-1-12,10,3,-4,3,-2,-10,85,74,64,30.33,30.22,30.01,10,7,2,16,9,,0.00,7,Snow,275
2013-1-13,12,8,3,1,-1,-4,70,64,56,30.36,30.32,30.29,10,10,10,23,14,29,0.00,6,,258
2013-1-14,18,11,5,9,1,-6,71,64,56,30.36,30.22,29.98,10,7,2,37,24,46,0.00,4,Snow,244
2013-1-15,28,22,15,15,11,7,68,63,55,30.40,30.25,30.05,10,5,1,43,35,59,0.00,6,Snow,234
2013-1-16,42,34,27,16,14,11,53,40,35,30.38,30.34,30.29,10,10,10,39,31,60,0.00,0,,232
2013-1-17,45,38,30,16,14,12,48,38,30,30.42,30.30,30.17,10,10,10,37,28,51,0.00,0,,237
2013-1-18,46,42,37,14,12,9,38,29,24,30.11,30.05,29.97,10,10,10,45,31,59,0.02,0,,239
2013-1-19,43,38,34,12,9,7,33,29,26,30.27,30.19,30.12,10,10,10,36,29,48,0.00,0,,231
2013-1-20,41,30,19,18,15,9,80,61,27,30.46,30.35,30.17,10,10,10,28,14,41,0.00,3,,319
2013-1-21,50,44,37,17,11,8,44,29,20,30.24,30.12,30.01,10,10,10,40,24,54,0.00,0,,237
2013-1-22,46,40,35,8,7,4,31,24,18,30.11,30.06,29.99,10,10,10,46,33,58,0.00,0,,231
2013-1-23,48,39,30,17,10,4,54,27,18,30.06,29.98,29.85,10,10,10,45,24,58,0.00,0,,185
2013-1-24,50,44,39,23,19,11,50,36,23,30.10,29.96,29.85,10,10,10,38,29,56,0.00,4,,234
2013-1-25,52,46,39,28,24,20,50,43,34,30.09,30.00,29.89,10,10,10,44,25,51,0.00,5,,241
2013-1-26,55,45,35,29,28,25,76,52,31,29.87,29.76,29.64,10,10,10,31,19,47,0.00,2,,246
2013-1-27,35,30,24,28,25,17,88,81,69,29.90,29.80,29.72,10,5,1,14,8,17,0.02,8,Snow,258
2013-1-28,30,24,19,18,13,9,75,62,45,29.94,29.87,29.77,10,10,10,24,11,37,0.00,4,,242
2013-1-29,25,18,10,18,10,1,86,66,52,30.21,29.98,29.76,10,9,2,26,17,36,0.00,6,Snow,292
2013-1-30,37,30,24,29,23,12,88,71,52,30.03,29.95,29.89,10,9,5,32,25,41,0.00,8,Snow,257
2013-1-31,42,38,33,30,25,23,76,61,51,30.12,30.06,29.94,10,10,7,32,25,45,0.00,8,Snow,250